DELTA 1 DEB, 2223

Orbit data source: Space-Track

DELTA 1 DEB, 2223 is space debris in SSO originally from a launch on Mon, 28 Feb 1966 UTC launched from the Air Force Eastern Test Range (AFETR). Debris objects in space refer to the collection of defunct objects orbiting the Earth. Examples of debris include non-operational satellites, rocket bodies, and fragments generated from explosions, collisions, or faulty payload assembly.

Loading next visibility...
Identifier
2223, 1966-016C
Orbit
SSO
Country
Flag of USUS
Related business
Manufacturer
Unknown
Mission
Spacecraft
Bus & Motor
Unknown
Mass
1 kg wet, 1 kg dry
Launch date (UTC)
1966-02-28 (60 years ago)
Launch vehicle
Unknown
Launch site
Air Force Eastern Test Range (AFETR)
Object type
Payload
Rocket body
Debris
Shape & HBR
Unknown
Radar Cross Section
Small (<0.1 m²)

Expand to show TLE details & history
Last TLE update: 3 days ago

TLE from 3 days ago
0 DELTA 1 DEB
1 02223U 66016C   25310.02504861 -.00000003  00000-0  15602-3 0  9996
2 02223 100.7581 341.3610 0093324 330.7995  93.6341 12.87761831798237
Epoch: 2025-11-06T00:36Z
TLE epoch observation values (Epoch: 2025-11-06T00:36:04.199Z)
Latitude
63.46355°
Longitude
-95.39164°
Altitude
1,326.419 km
Speed
7.197 km/s
True Right ascension
21h 16m 27s
True Declination
63° 20' 10"
Sunlit
Object was in daylight at epoch
Visualization orbit readout
Latitude
Unknown
Longitude
Unknown
Altitude
Unknown
Speed
Unknown
Apparent Right ascension
Unknown
Apparent Declination
Unknown
Sunlit
N/A
Visualization observer readout
Local Sidereal Time
20:33:33
Azimuth
Unknown
Elevation
Unknown
Doppler factor
Unknown
Orbital elements
Apogee altitude
1,379.589 km
Perigee altitude
1,236.131 km
Semi-major axis
7,685.997 km
Eccentricity
0.00933
Inclination
100.7581°
RAAN
341.361°
Arg. of periapsis
330.7995°
True anomaly
94.70051°
Mean anomaly
93.6341°
Eccentric anomaly
94.16739°
Mean motion
3.22102 °/min
Orbital period
111.77 mins
BSTAR
0.00015602
Loading maneuver chart data...
Computing Atmospheric mass density...
Loading historical data...
Loading historical data...
Loading historical data...
Loading historical data...
Loading historical data...
Loading historical data...
Loading historical data...
Other satellites on launch #16 in the year 1966 (1966-02-28 UTC)

Documentation

Showing up to 5 results
|